Location: ??? ?????
(30.6482°N, 60.5850°E)
Time: 21:22:55
(UTC+00:00)

Geosat - Pass Details

Date: 09 April 2020
Orbit: 763 x 766 km, 108.0° (Epoch: 24 May)

Event Time Altitude Azimuth Distance (km) Brightness Sun altitude
Rises 23:39:41 0° 26° (NNE) 3,233 8.0 -24.5°
Reaches altitude 10° 23:41:59 10° 28° (NNE) 2,304 7.2 -24.1°
Maximum altitude 23:47:00 72° 113° (ESE) 804 4.1 -23.1°
Enters shadow 23:48:59 37° 188° (S) 1,176 4.7 -22.7°
